Flag for Australia Weather past 2 weeks in Uluru, Northern Territory, Australia

Now
57 °F

Sunny.


Feels Like: 56 °F
Forecast: 47 / 82 °F
Wind: 7 mph from South

Location: Ayers Rock

Current Time: Jul 30, 2015 at 9:52:49 AM

Latest Report: Jul 30, 2015 at 9:30 AM


Visibility: N/A

Pressure: 30.30 "Hg (27.36 "Hg at 857m altitude)

Humidity: 36%

Dew point: 30 °F

Location of UluruLocation

Historic Weather in Uluru — Graph

°F

Uluru temperature yesterday

Maximum temperature yesterday: 70 °F (at 3:30 PM)
Minimum temperature yesterday: 36 °F (at 7:30 AM)
Average temperature yesterday: 52 °F

Past Weeks' High & Low Weather Summary

 TemperatureHumidityPressure
High79 °F (Jul 23, 3:30 PM)100% (Jul 23, 10:30 PM)30.51 "Hg (Jul 23, 10:30 PM)
Low32 °F (Jul 20, 7:30 AM)11% (Jul 20, 5:30 PM)29.98 "Hg (Jul 23, 2:30 PM)
Average53 °F55%30.27 "Hg
* Reported Jul 15 8:30 AM — Jul 30 8:30 AM, Uluru, Weather by CustomWeather, © 2015

Note: Actual official high and low records may vary slightly from our data, if they occured in-between our weather recording intervals... More about our weather records

Advertising

Uluru weather history for previous 24 hours

 ConditionsComfort  
Time TempWeatherWind HumidityBarometerVisibility
8:30 AM
Thu, Jul 30
46 °FSunny.6 mph57%30.30 "HgN/A
7:30 AM39 °FSunny.5 mph70%30.27 "HgN/A
6:30 AM41 °FClear.6 mph66%30.24 "HgN/A
5:30 AM41 °FClear.6 mph70%30.24 "HgN/A
4:30 AM43 °FClear.7 mph61%30.24 "HgN/A
3:30 AM45 °FClear.5 mph57%30.24 "HgN/A
2:30 AM46 °FClear.5 mph53%30.24 "HgN/A
1:30 AM46 °FClear.No wind53%30.24 "HgN/A
12:30 AM48 °FClear.3 mph50%30.27 "HgN/A
11:30 PM
Wed, Jul 29
48 °FClear.No wind46%30.27 "HgN/A
10:30 PM50 °FClear.3 mph43%30.27 "HgN/A
9:30 PM52 °FClear.3 mph35%30.27 "HgN/A
8:30 PM52 °FClear.No wind47%30.27 "HgN/A
7:30 PM55 °FClear.No wind36%30.27 "HgN/A
6:30 PM64 °FClear.7 mph19%30.24 "HgN/A
5:30 PM68 °FSunny.2 mph14%30.24 "HgN/A
4:30 PM70 °FSunny.2 mph12%30.24 "HgN/A
3:30 PM70 °FSunny.5 mph13%30.24 "HgN/A
2:30 PM68 °FSunny.3 mph17%30.24 "HgN/A
1:30 PM64 °FSunny.6 mph21%30.27 "HgN/A
12:30 PM63 °FSunny.5 mph24%30.33 "HgN/A
11:30 AM57 °FSunny.8 mph33%30.36 "HgN/A
10:30 AM54 °FSunny.10 mph41%30.39 "HgN/A
9:30 AM50 °FSunny.10 mph50%30.39 "HgN/A
Weather by CustomWeather, © 2015

See weather overviewHow to use our weather pages